{"data":{"norad_id":1520,"epoch":"2026-05-25T05:27:51.323040Z","epoch_age_seconds":58951,"freshness":"FRESH","line1":"1 01520U 65065H   26145.22767735  .00000121  00000+0  21464-3 0  9990","line2":"2 01520  89.8968 122.7153 0070112 166.5744 210.8914 13.36273539959643","mean_motion":13.36273539,"eccentricity":0.0070112,"inclination_deg":89.8968,"raan_deg":122.7153,"arg_perigee_deg":166.5744,"mean_anomaly_deg":210.8914,"bstar":0.00021464,"rev_number":95964,"period_min":107.76236735763,"perigee_km":1070.5995178705,"apogee_km":1175.7861654422,"semimajor_km":7501.3298416564,"source":"CELESTRAK","updated_at":"2026-05-25T13:38:25.284939Z"}}